Location: *
(48.8489°N, 2.3218°E)
Time: 08:50:23
(UTC+00:00)

BREEZE-M DEB (TANK) - Pass Details

Date: 23 August 2019
Orbit: 277 x 16856 km, 49.4° (Epoch: 17 September)

Event Time Altitude Azimuth Distance (km) Brightness Sun altitude
Rises 21:33:31 0° 277° (W) 2,237 6.1 -22.4°
Reaches altitude 10° 21:35:04 10° 260° (W) 1,668 5.1 -22.6°
Enters shadow 21:37:16 25° 216° (SW) 1,412 4.2 -22.8°
